www.pogodaiklimat.ru

Погода и климат >> Архив погоды >> Австралия >> Telfer Aero


ПОГОДА в Telfer Aero

  • Прогноз погоды в Telfer Aero
  • Монитор погоды в Telfer Aero
  • Климат города

АРХИВ ПОГОДЫ в Telfer Aero

Время (UTC), дата Ветер
(напр.,м/с)
 
Видим.   Явления Облачность Т
(С)
Тd
(С)
f
(%)
Тe
(С)
Тes
(С)
Комфортность P
(гПа)
Po
(гПа)
Тmin
(С)
Tmax
(С)
R
(мм)
R24
(мм)
S
(см)
07 10.12 В 4 н/о н/о +39.7 +15.3 24 +41 +41 опасность
перегрева
1003.3 971.3
09 10.12 СВ 4 н/о н/о +39.3 +15.0 24 +40 +40 очень
душно
1002.5 970.6
10 10.12 СВ 2 н/о н/о +38.4 +14.9 25 +39 +39 очень
душно
1003.0 971.0
12 10.12 ЮВ 3 н/о н/о +35.0 +17.2 35 +38 +38 очень
душно
1003.8 971.8
13 10.12 ЮВ 3 н/о 5/0
[]
+34.5 +16.8 35 +37 +37 очень
душно
1004.4 972.4 +40.4
15 10.12 Ю 1 н/о н/о +34.1 +15.5 33 +36 +36 душно 1004.5 972.5
16 10.12 ЮЗ 8 н/о 5/0
[]
+33.5 +14.5 32 +35 +35 душно 1004.1 972.1
18 10.12 ЮЗ 4 н/о н/о +33.1 +14.7 33 +35 +35 душно 1003.1 971.1
19 10.12 Ю 3 н/о 10/0
[]
+33.8 +14.3 31 +35 +35 очень
жарко
1002.7 970.8
21 10.12 З 3 н/о н/о +30.2 +17.3 46 +34 +34 очень
душно
1004.1 972.1
22 10.12 Ю 3 н/о 9/0
[]
+31.1 +15.1 38 +33 +34 душно 1005.1 973.1
00 11.12 ЮВ 6 н/о н/о +35.6 +15.3 30 +37 +37 душно 1005.9 973.9
01 11.12 ЮВ 3 н/о 9/0
[]
+37.0 +15.5 28 +39 +45 очень
душно
1005.7 973.7 +30.1
03 11.12 ЮВ 4 н/о н/о +40.0 +13.5 21 +40 +40 очень
душно
1004.5 972.5
04 11.12 Ю 3 н/о н/о +40.7 +13.3 20 +41 +41 опасность
перегрева
1003.6 971.6
06 11.12 З 5 н/о н/о +44.0 +12.6 16 +44 +44 опасность
перегрева
1001.9 970.0
07 11.12 ЮЗ 4 н/о н/о +43.7 +11.4 15 +43 +43 опасность
перегрева
1001.2 969.3
09 11.12 ЮЗ 3 н/о н/о +42.5 +11.4 16 +42 +42 опасность
перегрева
1000.6 968.7
10 11.12 Ю 8 н/о 8/0
[]
+38.6 +15.0 25 +40 +40 очень
душно
1001.9 970.0
12 11.12 СЗ 4 н/о н/о +37.5 +13.5 24 +38 +38 очень
жарко
1002.6 970.7
13 11.12 С 1 н/о 8/0
[]
+36.3 +13.7 26 +37 +37 очень
жарко
1002.6 970.7 +45.2
15 11.12 З 6 н/о н/о +35.8 +14.4 28 +37 +37 душно 1003.7 971.7
16 11.12 З 6 н/о 8/0
[]
+34.4 +15.3 32 +36 +36 душно 1003.3 971.3
18 11.12 ЮЗ 4 н/о н/о +33.0 +15.9 36 +36 +36 очень
душно
1002.8 970.9
19 11.12 Ю 6 н/о н/о +33.7 +8.3 21 +32 +32 жарко 1002.7 970.8
21 11.12 Ю 8 н/о н/о +32.4 +10.2 26 +29 +29 жарко 1003.6 971.6
22 11.12 Ю 8 н/о н/о +32.4 +0.5 13 +29 +29 жарко 1004.5 972.5
00 12.12 ЮВ 7 н/о н/о +36.4 +3.6 13 +33 +33 жарко 1005.3 973.3
01 12.12 Ю 7 н/о н/о +38.2 +2.6 11 +35 +35 очень
жарко
1005.4 973.4 +32.3
03 12.12 Ю 6 н/о н/о +41.8 +2.5 9 +38 +38 очень
жарко
1003.8 971.8
04 12.12 ЮВ 6 н/о н/о +42.6 +3.1 9 +39 +39 очень
жарко
1002.8 970.9
06 12.12 В 2 н/о н/о +43.3 +3.6 9 +40 +40 очень
жарко
1001.3 969.4
07 12.12 СЗ 5 н/о н/о +44.2 +4.2 9 +41 +41 опасность
перегрева
1000.5 968.6
09 12.12 ЮЗ 4 н/о н/о +43.6 +3.8 9 +40 +40 очень
жарко
1000.5 968.6
10 12.12 ЮЗ 3 н/о н/о +42.8 +3.2 9 +40 +40 очень
жарко
1001.0 969.1
12 12.12 Ю 4 н/о н/о +39.3 +4.7 12 +36 +36 очень
жарко
1002.1 970.2
13 12.12 Ю 4 н/о 5/0
[]
+37.8 +5.7 14 +35 +35 очень
жарко
1002.5 970.6 +45.2
15 12.12 Ю 6 н/о н/о +37.6 +4.5 13 +35 +35 очень
жарко
1002.5 970.6
16 12.12 Ю 7 н/о 4/0
[]
+36.2 +5.5 15 +34 +34 очень
жарко
1002.2 970.3
18 12.12 ЮВ 7 н/о н/о +33.2 +9.3 23 +32 +32 жарко 1002.6 970.7
19 12.12 ЮВ 6 н/о н/о +32.1 +10.2 26 +32 +32 жарко 1003.5 971.5
21 12.12 ЮВ 6 н/о н/о +30.6 +11.5 31 +31 +31 жарко 1005.0 973.0
22 12.12 ЮВ 9 н/о н/о +31.1 +12.0 31 +32 +32 жарко 1005.2 973.2
00 13.12 ЮВ 12 н/о н/о +33.1 +14.7 33 +35 +35 душно 1006.3 974.2
01 13.12 ЮВ 12 н/о 10/10 600 м
[]
+35.0 +15.3 31 +37 +37 очень
душно
1006.7 974.6 +30.5
03 13.12 ЮВ 10 н/о н/о +36.9 +14.8 27 +38 +38 очень
душно
1006.0 974.0
04 13.12 В 10 н/о н/о +39.0 +14.7 24 +40 +40 очень
душно
1005.3 973.3
06 13.12 В 8 н/о н/о +40.6 +13.3 20 +41 +41 опасность
перегрева
1003.9 971.9
07 13.12 В 9 н/о 1/0
[]
+41.9 +12.7 18 +42 +43 опасность
перегрева
1003.2 971.2
09 13.12 ЮВ 8 н/о н/о +41.0 +11.1 17 +40 +40 очень
жарко
1002.8 970.9
10 13.12 ЮВ 7 н/о н/о +39.6 +10.8 18 +38 +38 очень
жарко
1003.2 971.2
12 13.12 ЮВ 6 н/о н/о +36.3 +10.5 21 +35 +35 очень
жарко
1004.3 972.3
13 13.12 ЮВ 6 н/о 5/0
[]
+34.9 +10.0 22 +34 +34 очень
жарко
1004.8 972.8 +42.3
15 13.12 ЮВ 7 н/о н/о +33.5 +8.2 21 +32 +32 жарко 1004.8 972.8
16 13.12 ЮВ 7 н/о н/о +32.6 +7.4 21 +31 +31 жарко 1004.5 972.5
18 13.12 ЮВ 7 н/о н/о +30.6 +6.5 22 +29 +29 жарко 1004.1 972.1
19 13.12 В 6 н/о 1/0
[]
+29.7 +6.4 23 +28 +28 жарко 1004.8 972.8
21 13.12 В 6 н/о н/о +28.6 +6.1 24 +27 +27 жарко 1006.3 974.2
22 13.12 В 6 н/о н/о +28.9 +5.1 22 +27 +27 жарко 1006.9 974.8
00 14.12 В 8 н/о н/о +32.8 +2.8 15 +30 +30 жарко 1007.5 975.4
01 14.12 В 8 н/о н/о +33.9 +2.7 14 +31 +31 жарко 1007.0 974.9 +28.3
03 14.12 В 6 н/о н/о +37.4 +4.4 13 +34 +34 очень
жарко
1005.2 973.2
04 14.12 ЮВ 6 н/о н/о +39.0 +3.2 11 +36 +36 очень
жарко
1004.2 972.2
06 14.12 ЮВ 6 н/о н/о +40.6 +3.1 10 +37 +37 очень
жарко
1002.4 970.5
07 14.12 ЮВ 5 н/о 3/0
[]
+40.6 +3.1 10 +37 +43 очень
жарко
1001.9 970.0
09 14.12 ЮВ 3 н/о н/о +40.3 +4.2 11 +37 +37 очень
жарко
1001.8 969.9
10 14.12 В 3 н/о 3/0
[]
+39.3 +4.7 12 +36 +37 очень
жарко
1002.2 970.3
12 14.12 ЮВ 3 н/о н/о +34.8 +7.8 19 +33 +33 жарко 1002.8 970.9
13 14.12 ЮВ 3 н/о 4/0
[]
+33.4 +8.1 21 +32 +32 жарко 1003.2 971.2 +41.8
15 14.12 ЮВ 4 н/о н/о +31.3 +8.3 24 +30 +30 жарко 1002.7 970.8
16 14.12 ЮВ 4 н/о н/о +30.8 +7.9 24 +30 +30 жарко 1002.2 970.3
18 14.12 СВ 2 н/о н/о +29.4 +6.1 23 +28 +28 жарко 1002.3 970.4
19 14.12 В 3 н/о н/о +27.1 +6.5 27 +26 +26 жарко 1002.1 970.2
21 14.12 ЮВ 4 н/о н/о +26.7 +4.5 24 +26 +26 жарко 1003.2 971.2
22 14.12 В 4 н/о н/о +29.1 +3.9 20 +27 +27 жарко 1003.7 971.7
00 15.12 В 6 н/о н/о +34.6 +9.2 21 +31 +31 жарко 1003.9 971.9
01 15.12 В 6 н/о н/о +36.4 +3.6 13 +33 +33 жарко 1003.5 971.5 +26.8
03 15.12 С 4 н/о н/о +39.8 +14.1 22 +40 +40 очень
душно
1001.4 969.5
04 15.12 С 6 н/о н/о +41.4 +14.7 21 +42 +42 опасность
перегрева
1000.3 968.4
06 15.12 СЗ 6 н/о н/о +42.0 +12.8 18 +42 +42 опасность
перегрева
998.7 966.9
07 15.12 С 6 н/о 6/0
[]
+41.9 +12.7 18 +42 +45 опасность
перегрева
998.0 966.2
09 15.12 СЗ 6 н/о н/о +42.0 +9.0 14 +40 +40 очень
жарко
997.5 965.7
10 15.12 СЗ 7 н/о 4/0
[]
+41.6 +7.6 13 +39 +39 очень
жарко
997.9 966.1
12 15.12 СЗ 5 н/о н/о +37.6 +10.8 20 +37 +37 очень
жарко
999.2 967.4
13 15.12 СЗ 5 н/о 9/0
[]
+35.9 +12.8 25 +36 +36 очень
жарко
1000.2 968.3 +43.8
15 15.12 СЗ 6 н/о н/о +31.3 +17.2 43 +35 +35 очень
душно
1000.8 968.9
16 15.12 СЗ 6 н/о н/о +29.6 +16.8 46 +33 +33 душно 1000.7 968.8
18 15.12 СЗ 5 н/о н/о +26.7 +17.2 56 +31 +31 душно 1000.2 968.3
19 15.12 СЗ 5 н/о н/о +25.6 +18.3 64 +30 +30 душно 1000.7 968.8
21 15.12 СЗ 4 н/о н/о +24.3 +18.2 69 +29 +29 душно 1001.8 969.9
22 15.12 СЗ 5 н/о н/о +25.1 +19.2 70 +30 +30 душно 1002.6 970.7
00 16.12 СЗ 6 н/о н/о +28.5 +19.4 58 +34 +34 очень
душно
1003.4 971.4
01 16.12 СЗ 5 н/о н/о +32.0 +18.2 44 +37 +37 очень
душно
1003.3 971.3 +24.4
03 16.12 СЗ 6 н/о н/о +36.4 +16.0 30 +38 +38 очень
душно
1002.2 970.3
04 16.12 СЗ 7 н/о н/о +38.5 +12.3 21 +38 +38 очень
жарко
1001.2 969.3
06 16.12 СЗ 9 н/о н/о +39.9 +8.4 15 +38 +38 очень
жарко
999.4 967.6
07 16.12 СЗ 9 н/о н/о +40.5 +4.3 11 +37 +37 очень
жарко
998.7 966.9
09 16.12 СЗ 8 н/о н/о +39.8 +3.8 11 +37 +37 очень
жарко
998.4 966.6
10 16.12 СЗ 8 н/о н/о +38.3 +2.7 11 +35 +35 очень
жарко
999.1 967.3
12 16.12 СЗ 8 н/о н/о +32.5 +11.6 28 +33 +33 жарко 1001.1 969.2
13 16.12 СЗ 7 н/о 9/0
[]
+30.2 +13.5 36 +32 +32 жарко 1001.6 969.7 +42.2
15 16.12 СЗ 7 н/о н/о +26.7 +14.5 47 +29 +29 жарко 1002.2 970.3
16 16.12 СЗ 6 н/о н/о +25.6 +15.3 53 +29 +29 душно 1002.2 970.3
18 16.12 СЗ 5 н/о н/о +23.5 +16.1 63 +27 +27 душно 1001.9 970.0
19 16.12 СЗ 4 н/о н/о +22.9 +16.2 66 +27 +27 душно 1002.2 970.3
21 16.12 З 3 н/о н/о +21.9 +16.6 72 +26 +26 душно 1003.5 971.5
22 16.12 З 4 н/о н/о +22.7 +16.9 70 +27 +27 душно 1004.4 972.4
00 17.12 ЮЗ 4 н/о н/о +28.3 +10.9 34 +29 +29 жарко 1005.2 973.2
01 17.12 ЮЗ 4 н/о н/о +30.2 +7.4 24 +29 +29 жарко 1005.2 973.2 +22.0
03 17.12 СЗ 4 н/о н/о +33.6 +4.3 16 +31 +31 жарко 1004.1 972.1
04 17.12 З 4 н/о н/о +34.7 +4.3 15 +32 +32 жарко 1003.5 971.5
06 17.12 З 7 н/о н/о +36.6 +2.6 12 +33 +33 жарко 1002.1 970.2

 

Местоположение метеостанции Telfer Aero (Западная Австралия, Австралия): широта -21.71 долгота 122.21 высота над уровнем моря 292 м.

В архиве по умолчанию представлена погода в Telfer Aero за последнюю неделю. Архивные данные за месяц целиком и за предыдущие месяцы, начиная с января 2011 года, Вы можете получить, выбрав интересующий диапазон дат из раскрывающегося списка и нажав кнопку "Ввод!".


*Определитесь, кто Вы:
робот инопланетянин человек

Внимание! Время в таблицах - всемирное. Для получения местного времени необходимо прибавить поправку, которая в Telfer Aero равна 8 ч.

Смотрите также архив погоды в соседних городах и на ближайших метеорологических станциях:

Погода в Marble Bar (Западная Австралия, Австралия) (261 км)
Погода в Mandora (Западная Австралия, Австралия) (262 км)
Погода в Newman Aero (Западная Австралия, Австралия) (311 км)
Погода в Port Hedland Apardoo (Западная Австралия, Австралия) (401 км)
Погода в Broome Airport (Западная Австралия, Австралия) (418 км)
Погода в West Roebuck (Западная Австралия, Австралия) (424 км)
Погода в Paraburdoo Aero (Западная Австралия, Австралия) (486 км)
Погода в Curtin Aero (Западная Австралия, Австралия) (489 км)
Погода в Derby Aero (Северная территория, Австралия) (507 км)
Погода в Fitzroy Crossing Aero (Западная Австралия, Австралия) (526 км)

Пояснения к столбцам:

Ветер - указаны скорость ветра в м/с - средняя за 10 мин, порывы в срок и между сроками (в фигурных скобках) и направление, откуда дует ветер: С - северный, СВ - северо-восточный, В - восточный, ЮВ - юго-восточный, Ю - южный, ЮЗ - юго-западный, З - западный, СЗ - северо-западный.
Видимость - горизонтальная дальность видимости в метрах или километрах. При видимости от 1 до 10 км при отсутствии осадков обычно наблюдается дымка, при ухудшении видимости до 1 км и менее - туман. В сухую погоду видимость может ухудшаться дымом, пылью или мглою.
Явления - указаны атмосферные явления, наблюдавшиеся в срок или в последний час перед сроком; фигурными скобками обозначены явления, наблюдавшиеся между сроками (за 1-3 часа до срока); квадратными скобками обозначены град или гололедные отложения с указанием их диаметра в мм.
Облачность - указаны через наклонную черту общая и нижняя облачность в баллах и высота нижней границы облаков в метрах; квадратными скобками обозначены формы облаков: Ci - перистые, Cs - перисто-слоистые, Cc - перисто-кучевые, Ac - высококучевые, As - высокослоистые, Sc - слоисто-кучевые, Ns - слоисто-дождевые, Cu - кучевые, Cb - кучево-дождевые. Подробнее классификацию облаков см. в Атласе облаков (PDF).
T - Температура воздуха - температура, измеренная на высоте 2 м над землей.
Td - Температура точки росы - температура, при понижении до которой содержащийся в воздухе водяной пар достигнет насыщения.
f - Относительная влажность воздуха - влажноcть воздуха, измеренная на высоте 2 м над землей.
Te - Эффективная температура - температура, которую ощущает одетый по сезону человек в тени. Характеристика душности погоды. При расчете учитывается влияние влажности воздуха и скорости ветра на теплоощущения человека.
Tes - Эффективная температура на солнце - температура, которую ощущает человек, с поправкой на солнечный нагрев. Характеристика знойности погоды. Зависит от высоты солнца над горизонтом, облачности и скорости ветра. Ночью, в пасмурную погоду, а также при ветре 12 м/с и более поправка равна нулю.
P - Атмосферное давление - приведенное к уровню моря атмосферное давление.
Po - Атмосферное давление - измеренное на уровне метеостанции атмосферное давление.
Tmin - Минимальная температура - минимум температуры воздуха на высоте 2 м над землей.
Tmax - Максимальная температура - максимум температуры воздуха на высоте 2 м над землей.
R - Количество осадков - Количество выпавших осадков за период времени, мм. При наведении курсора мыши на число - период времени, за который выпало указанное количество осадков.
R24 - Количество осадков - Количество выпавших осадков за 24 часа, мм.
S - Снежный покров - Высота снежного покрова, см. При наведении курсора мыши на число - состояние снежного покрова и степень покрытия местности в баллах.